GFSNGP_prec_pwat_336.txt.gz
Precipitable_Water
0.18 0.22 0.22 0.21 0.21 0.21 0.20 0.23 0.23 0.27 0.33 0.47 0.58 0.63 0.70 0.78 0.85 0.72 0.66 0.67 0.68 0.66 0.71 0.78 0.86 1.02 1.11 1.18 1.20 1.19 1.18 1.20 1.30 1.46 1.51 1.55 1.68 1.87 1.96 1.96 1.90 1.87 1.87 1.84
0.18 0.20 0.22 0.20 0.22 0.22 0.21 0.23 0.24 0.27 0.31 0.51 0.70 0.80 0.76 0.80 0.82 0.68 0.71 0.76 0.79 0.77 0.78 0.77 0.78 0.86 0.96 1.12 1.23 1.37 1.47 1.53 1.62 1.70 1.69 1.72 1.83 1.92 1.93 1.90 1.81 1.84 1.82 1.76
0.17 0.21 0.22 0.18 0.22 0.22 0.22 0.25 0.26 0.25 0.29 0.48 0.67 0.73 0.72 0.77 0.77 0.74 0.76 0.84 0.85 0.82 0.86 0.91 0.93 0.94 0.96 1.15 1.34 1.39 1.40 1.46 1.52 1.59 1.60 1.63 1.65 1.66 1.66 1.71 1.79 1.78 1.80 1.76
0.19 0.23 0.16 0.20 0.27 0.28 0.26 0.27 0.31 0.34 0.39 0.45 0.54 0.62 0.75 0.82 0.74 0.79 0.88 0.95 0.99 1.00 1.03 1.09 1.14 1.15 1.20 1.21 1.22 1.20 1.23 1.32 1.42 1.43 1.42 1.47 1.50 1.55 1.58 1.64 1.67 1.74 1.77 1.79
0.19 0.19 0.21 0.22 0.26 0.28 0.26 0.23 0.31 0.34 0.45 0.54 0.63 0.69 0.72 0.85 0.88 0.91 0.95 1.08 1.19 1.25 1.24 1.25 1.23 1.27 1.27 1.22 1.23 1.21 1.18 1.21 1.27 1.27 1.22 1.21 1.19 1.24 1.34 1.46 1.51 1.57 1.63 1.64
0.26 0.19 0.16 0.22 0.30 0.38 0.37 0.21 0.35 0.39 0.46 0.54 0.66 0.56 0.60 0.89 1.01 1.06 1.19 1.25 1.25 1.28 1.29 1.31 1.38 1.42 1.30 1.23 1.23 1.24 1.24 1.16 1.15 1.09 1.05 1.04 1.08 1.06 1.11 1.12 1.15 1.28 1.36 1.48
0.28 0.24 0.23 0.28 0.39 0.42 0.26 0.20 0.37 0.41 0.46 0.53 0.55 0.62 0.75 0.97 1.04 1.24 1.30 1.28 1.31 1.31 1.31 1.39 1.49 1.47 1.34 1.23 1.12 1.14 1.10 1.07 1.04 1.01 0.96 0.96 0.96 0.96 0.96 0.97 1.00 0.99 0.97 1.03
0.35 0.30 0.23 0.46 0.44 0.32 0.36 0.42 0.48 0.54 0.55 0.59 0.69 0.79 0.86 0.97 1.08 1.18 1.19 1.23 1.32 1.28 1.22 1.24 1.18 1.05 0.98 0.91 0.94 0.91 0.87 0.83 0.82 0.82 0.78 0.75 0.72 0.71 0.72 0.73 0.70 0.69 0.68 0.70
0.40 0.38 0.51 0.56 0.52 0.53 0.55 0.54 0.56 0.59 0.70 0.76 0.80 0.88 0.96 1.01 1.13 1.17 1.15 1.15 1.18 1.12 1.07 1.07 1.08 1.04 0.94 0.98 1.01 0.98 0.94 0.89 0.84 0.82 0.78 0.74 0.66 0.60 0.58 0.59 0.56 0.54 0.55 0.56
0.50 0.55 0.57 0.58 0.61 0.63 0.67 0.62 0.67 0.67 0.72 0.79 0.81 0.88 0.91 0.96 1.02 1.06 1.08 1.08 1.14 1.12 1.08 1.09 1.14 1.13 1.11 1.09 1.04 0.94 0.87 0.86 0.84 0.79 0.76 0.72 0.68 0.68 0.66 0.63 0.62 0.62 0.60 0.59
0.55 0.63 0.66 0.68 0.71 0.73 0.73 0.75 0.75 0.79 0.81 0.80 0.80 0.85 0.89 0.94 1.00 1.06 1.12 1.16 1.18 1.16 1.15 1.12 1.05 1.04 1.10 1.09 1.04 0.93 0.85 0.83 0.81 0.80 0.72 0.67 0.71 0.74 0.75 0.79 0.81 0.77 0.76 0.77
0.44 0.63 0.67 0.71 0.79 0.83 0.79 0.79 0.84 0.83 0.87 0.95 0.97 0.97 1.05 1.06 1.07 1.11 1.07 1.10 1.05 1.09 1.02 0.99 1.03 1.02 1.05 1.04 0.97 0.88 0.83 0.82 0.76 0.67 0.67 0.68 0.69 0.71 0.83 0.84 0.83 0.84 0.82 0.81
0.63 0.72 0.73 0.79 0.85 0.90 0.88 0.91 0.96 1.00 1.00 0.99 1.05 1.07 1.08 1.03 1.01 1.05 1.05 1.09 1.07 1.07 1.05 1.05 1.03 1.05 1.08 1.05 0.98 0.89 0.80 0.72 0.69 0.70 0.73 0.79 0.83 0.84 0.79 0.83 0.86 0.84 0.83 0.84
0.79 0.78 0.72 0.79 0.78 0.89 0.94 0.97 1.00 1.00 1.00 0.99 0.99 1.00 1.01 1.05 1.06 1.04 1.03 1.04 1.06 1.05 1.05 1.04 1.04 1.01 1.04 0.99 0.91 0.86 0.78 0.80 0.80 0.84 0.90 0.92 0.91 0.88 0.85 0.78 0.71 0.71 0.80 0.82
0.74 0.78 0.78 0.82 0.84 0.85 0.91 0.94 0.91 0.91 0.94 0.96 1.01 1.00 1.03 1.00 0.99 1.01 1.06 1.08 1.08 1.04 1.01 1.00 0.99 0.96 0.98 0.95 0.87 0.85 0.87 0.90 0.97 0.99 0.96 0.92 0.88 0.85 0.79 0.74 0.73 0.73 0.76 0.80
0.78 0.79 0.79 0.75 0.74 0.79 0.81 0.81 0.79 0.81 0.85 0.88 0.89 0.91 0.96 0.99 1.00 1.03 1.03 1.03 0.96 0.90 0.94 0.92 0.92 0.92 0.94 0.94 0.95 0.96 0.99 1.02 0.99 0.94 0.90 0.86 0.81 0.75 0.74 0.73 0.72 0.74 0.82 0.95
0.70 0.69 0.72 0.70 0.69 0.74 0.77 0.74 0.75 0.77 0.82 0.84 0.88 0.94 0.96 0.96 0.96 0.96 0.97 0.99 0.97 0.96 0.96 0.94 0.92 0.94 0.99 1.03 1.01 0.99 0.99 0.98 0.97 0.92 0.84 0.79 0.78 0.76 0.75 0.77 0.85 0.95 1.00 1.07
0.65 0.62 0.62 0.66 0.72 0.78 0.73 0.71 0.76 0.81 0.82 0.87 0.91 0.93 0.93 0.92 0.90 0.93 0.95 0.98 0.96 0.94 0.95 0.97 0.99 1.04 1.08 1.10 1.09 1.07 1.03 0.97 0.89 0.81 0.78 0.76 0.74 0.84 0.94 0.96 0.99 1.01 1.05 1.10
0.72 0.69 0.69 0.72 0.75 0.76 0.78 0.80 0.81 0.84 0.88 0.92 0.94 0.96 0.99 1.01 1.01 1.00 0.99 0.91 0.86 0.82 0.89 1.03 1.08 1.10 1.10 1.10 1.09 1.03 0.92 0.84 0.79 0.78 0.77 0.77 0.89 0.99 1.01 1.03 1.05 1.07 1.10 1.08
0.76 0.79 0.80 0.79 0.83 0.84 0.85 0.90 0.95 0.99 0.98 0.94 0.92 0.89 0.87 0.85 0.85 0.85 0.88 0.86 0.93 0.98 1.08 1.09 1.08 1.08 1.07 1.07 1.01 0.91 0.82 0.79 0.77 0.74 0.79 0.93 0.99 1.04 1.08 1.11 1.13 1.10 1.10 1.11
0.88 0.88 0.89 0.91 0.94 0.99 0.99 0.98 0.94 0.94 1.00 1.01 0.95 0.90 0.90 0.94 1.00 1.01 0.97 0.93 1.05 1.16 1.17 1.14 1.09 1.05 1.00 0.94 0.84 0.78 0.82 0.81 0.79 0.85 0.94 1.05 1.08 1.12 1.12 1.11 1.10 1.12 1.13 1.13
0.96 0.98 0.98 0.99 0.98 0.95 0.97 0.99 1.04 1.05 1.06 1.01 1.00 1.01 1.00 0.93 0.95 0.98 1.00 0.93 0.98 1.00 1.01 1.02 1.01 0.98 0.94 0.86 0.84 0.83 0.81 0.85 0.94 1.03 1.08 1.12 1.11 1.08 1.09 1.09 1.10 1.10 1.11 1.13
1.00 1.03 1.04 1.01 1.01 1.01 1.05 1.10 1.08 1.03 1.00 1.02 1.03 1.00 0.95 0.89 0.85 0.80 0.76 0.96 1.02 1.02 1.04 1.05 1.03 0.97 0.92 0.88 0.73 0.78 1.01 1.02 1.08 1.12 1.14 1.14 1.08 1.03 1.03 1.08 1.09 1.08 1.11 1.12
1.09 1.09 1.10 1.15 1.16 1.09 1.01 1.02 1.03 1.04 1.05 1.03 0.99 0.95 0.86 0.80 0.88 0.98 1.04 1.09 1.07 1.04 1.03 0.97 0.93 0.96 0.86 0.70 0.76 1.00 1.08 1.09 1.14 1.15 1.12 1.09 1.07 1.03 1.02 1.05 1.05 1.07 1.10 1.14
1.14 1.12 1.11 1.08 1.02 0.99 0.98 1.00 1.00 0.98 0.91 0.85 0.86 0.88 0.91 0.96 0.93 1.05 1.14 1.16 1.13 1.10 0.99 0.92 1.03 0.91 0.78 0.64 0.83 0.96 1.13 1.14 1.15 1.12 1.08 1.07 1.07 1.07 1.03 1.02 1.02 1.06 1.11 1.13
1.00 0.98 0.94 0.91 0.91 0.93 0.92 0.91 0.86 0.85 0.79 0.75 0.83 0.87 0.90 0.95 1.09 1.14 1.15 1.13 1.13 1.02 0.96 1.04 1.06 0.83 0.65 0.63 0.65 0.76 1.12 1.15 1.16 1.15 1.14 1.16 1.15 1.12 1.14 1.10 1.00 1.02 1.06 1.14
0.85 0.86 0.84 0.84 0.82 0.80 0.82 0.80 0.76 0.77 0.82 0.82 0.81 0.87 0.91 0.98 1.04 1.08 1.09 1.09 0.99 1.05 1.08 1.04 0.73 0.65 0.65 0.61 0.60 0.66 0.86 0.97 1.10 1.14 1.15 1.12 1.12 1.13 1.13 1.12 1.10 1.07 1.04 1.10

GFSNGP_prec_pwat_339.txt.gz
Precipitable_Water
0.20 0.23 0.22 0.21 0.21 0.21 0.20 0.21 0.19 0.21 0.26 0.32 0.50 0.60 0.69 0.77 0.83 0.78 0.67 0.60 0.61 0.62 0.69 0.78 0.90 1.02 1.14 1.20 1.31 1.31 1.20 1.18 1.17 1.24 1.34 1.47 1.52 1.60 1.73 1.78 1.89 1.93 1.83 1.88
0.18 0.21 0.21 0.20 0.22 0.22 0.23 0.24 0.24 0.24 0.23 0.33 0.47 0.76 0.85 0.78 0.82 0.80 0.71 0.68 0.69 0.75 0.80 0.86 0.91 0.93 0.96 1.02 1.11 1.17 1.17 1.22 1.44 1.63 1.64 1.62 1.67 1.72 1.73 1.75 1.83 1.84 1.78 1.84
0.16 0.20 0.21 0.18 0.21 0.22 0.23 0.25 0.23 0.20 0.23 0.33 0.39 0.55 0.70 0.82 0.83 0.82 0.72 0.74 0.78 0.77 0.88 0.97 1.00 1.02 1.00 1.09 1.20 1.22 1.32 1.41 1.42 1.43 1.42 1.46 1.50 1.51 1.51 1.53 1.59 1.63 1.71 1.76
0.17 0.18 0.14 0.19 0.25 0.25 0.23 0.24 0.27 0.27 0.30 0.36 0.38 0.47 0.66 0.85 0.80 0.84 0.82 0.83 0.93 0.91 1.00 1.10 1.21 1.21 1.27 1.28 1.23 1.22 1.20 1.21 1.28 1.33 1.29 1.31 1.32 1.30 1.35 1.43 1.48 1.55 1.58 1.64
0.19 0.18 0.19 0.19 0.22 0.24 0.24 0.25 0.30 0.30 0.32 0.38 0.49 0.61 0.69 0.87 0.88 0.94 0.92 0.97 1.10 1.15 1.18 1.24 1.27 1.37 1.38 1.33 1.34 1.32 1.26 1.21 1.15 1.11 1.12 1.12 1.06 1.05 1.10 1.12 1.14 1.20 1.31 1.39
0.26 0.20 0.16 0.20 0.26 0.31 0.32 0.20 0.32 0.34 0.34 0.38 0.53 0.45 0.51 0.76 0.90 1.06 1.10 1.13 1.22 1.31 1.38 1.40 1.42 1.50 1.50 1.44 1.42 1.36 1.39 1.37 1.37 1.25 1.13 1.03 0.99 0.96 0.96 1.02 1.05 1.11 1.10 1.11
0.32 0.28 0.25 0.28 0.34 0.38 0.22 0.20 0.31 0.35 0.36 0.42 0.44 0.51 0.67 0.87 0.98 1.19 1.16 1.24 1.41 1.45 1.44 1.47 1.49 1.49 1.37 1.35 1.29 1.28 1.24 1.16 1.04 0.95 0.88 0.88 0.86 0.84 0.80 0.75 0.73 0.72 0.72 0.78
0.35 0.31 0.26 0.45 0.43 0.30 0.35 0.38 0.41 0.41 0.41 0.50 0.61 0.75 0.84 0.94 1.06 1.17 1.20 1.32 1.46 1.41 1.36 1.37 1.41 1.45 1.34 1.19 1.13 1.10 1.09 1.07 1.03 1.00 0.94 0.90 0.86 0.80 0.78 0.73 0.68 0.65 0.64 0.63
0.40 0.38 0.51 0.56 0.54 0.57 0.55 0.50 0.53 0.52 0.56 0.64 0.68 0.73 0.89 0.98 1.15 1.25 1.30 1.36 1.38 1.24 1.22 1.31 1.31 1.23 1.13 1.17 1.21 1.20 1.06 0.99 1.02 0.96 0.89 0.87 0.82 0.76 0.69 0.67 0.63 0.61 0.60 0.60
0.47 0.51 0.54 0.58 0.61 0.63 0.67 0.64 0.67 0.68 0.68 0.72 0.75 0.91 0.99 1.13 1.22 1.24 1.27 1.12 1.15 1.19 1.18 1.17 1.23 1.26 1.27 1.25 1.15 1.08 1.00 0.97 0.95 0.94 0.90 0.90 0.88 0.79 0.71 0.68 0.68 0.69 0.67 0.68
0.54 0.59 0.62 0.68 0.70 0.69 0.70 0.76 0.77 0.81 0.83 0.85 0.89 0.93 0.96 1.01 1.05 1.05 1.08 1.12 1.17 1.17 1.20 1.20 1.23 1.25 1.22 1.20 1.14 1.07 1.06 1.05 0.97 0.93 0.90 0.81 0.75 0.73 0.71 0.74 0.77 0.72 0.73 0.77
0.41 0.55 0.59 0.66 0.77 0.81 0.78 0.77 0.81 0.81 0.84 0.90 0.88 0.89 0.97 0.99 1.06 1.11 1.14 1.20 1.19 1.19 1.20 1.17 1.16 1.22 1.24 1.25 1.21 1.13 1.02 0.95 0.91 0.87 0.79 0.75 0.75 0.76 0.90 0.94 0.95 0.95 0.89 0.84
0.59 0.65 0.65 0.71 0.78 0.85 0.88 0.93 0.96 0.96 0.98 0.94 1.01 1.03 1.06 1.05 1.11 1.12 1.15 1.12 1.14 1.07 1.15 1.13 1.19 1.22 1.25 1.26 1.19 1.10 0.96 0.92 0.88 0.81 0.79 0.80 0.84 0.86 0.82 0.89 0.91 0.89 0.87 0.83
0.74 0.72 0.66 0.69 0.68 0.80 0.86 0.93 1.00 0.99 1.04 1.08 1.05 1.04 1.05 1.01 1.03 1.07 1.09 1.13 1.16 1.18 1.20 1.22 1.21 1.19 1.21 1.13 1.05 0.99 0.98 0.94 0.87 0.87 0.90 0.92 0.95 0.92 0.89 0.82 0.77 0.75 0.83 0.85
0.73 0.76 0.76 0.80 0.82 0.83 0.87 0.89 0.88 0.86 0.91 0.94 1.00 1.01 1.03 1.00 1.03 1.10 1.17 1.18 1.19 1.19 1.16 1.15 1.08 1.05 1.09 1.07 1.01 0.99 0.95 0.93 0.95 0.96 0.98 0.97 0.94 0.90 0.86 0.79 0.75 0.76 0.79 0.81
0.69 0.73 0.77 0.76 0.79 0.83 0.82 0.83 0.80 0.81 0.85 0.87 0.90 0.93 0.96 0.98 1.01 1.05 1.08 1.09 1.04 1.01 1.05 1.04 1.01 1.03 1.07 1.06 1.04 1.00 1.00 1.01 0.99 0.98 0.97 0.95 0.90 0.83 0.78 0.78 0.77 0.78 0.86 0.93
0.65 0.61 0.69 0.73 0.79 0.78 0.80 0.85 0.81 0.83 0.83 0.80 0.83 0.89 0.90 0.92 0.93 0.94 0.98 1.02 1.03 1.04 1.06 1.05 1.03 1.09 1.09 1.07 1.06 1.04 1.05 1.03 1.01 0.96 0.89 0.83 0.80 0.79 0.79 0.76 0.79 0.91 0.96 1.02
0.75 0.73 0.72 0.72 0.72 0.73 0.73 0.82 0.87 0.85 0.81 0.84 0.87 0.87 0.86 0.86 0.87 0.94 1.01 1.06 1.07 1.05 1.05 1.05 1.05 1.08 1.11 1.09 1.08 1.06 1.02 0.97 0.90 0.83 0.82 0.81 0.82 0.81 0.80 0.85 0.96 0.98 1.01 1.08
0.78 0.71 0.69 0.68 0.68 0.72 0.78 0.85 0.89 0.89 0.87 0.87 0.87 0.89 0.96 1.01 1.03 1.02 1.00 0.95 0.91 0.89 0.97 1.10 1.12 1.13 1.11 1.12 1.12 1.04 0.94 0.85 0.81 0.84 0.86 0.85 0.84 0.86 0.93 1.01 1.04 1.06 1.08 1.07
0.74 0.78 0.78 0.79 0.83 0.83 0.82 0.86 0.87 0.89 0.95 0.95 0.94 0.95 0.94 0.96 0.98 0.98 0.99 0.99 1.07 1.11 1.19 1.17 1.14 1.09 1.04 0.99 0.92 0.84 0.80 0.81 0.83 0.83 0.83 0.83 0.88 0.97 1.06 1.10 1.10 1.07 1.10 1.11
0.79 0.80 0.81 0.85 0.89 0.93 0.94 0.95 0.93 0.93 0.98 1.01 0.99 0.97 0.98 1.02 1.05 1.03 0.96 0.92 0.99 1.02 0.99 0.96 0.96 0.97 0.95 0.91 0.87 0.85 0.81 0.81 0.83 0.86 0.92 0.96 1.06 1.09 1.11 1.06 1.06 1.07 1.06 1.06
0.85 0.87 0.91 0.95 0.94 0.96 0.98 0.98 1.00 1.01 1.01 1.00 1.01 1.05 1.03 1.01 1.01 1.00 1.02 0.88 0.91 0.93 0.95 0.98 1.00 0.97 0.90 0.87 0.83 0.71 0.77 0.91 0.95 0.98 1.05 1.09 1.10 1.08 1.06 1.02 1.00 1.03 1.06 1.09
0.97 1.00 1.00 0.98 0.96 0.97 1.01 1.04 1.05 1.06 1.03 1.04 1.04 1.03 1.01 0.99 0.95 0.84 0.82 0.97 0.99 1.02 1.07 1.07 1.03 0.95 0.91 0.82 0.69 0.71 0.85 1.03 1.03 1.05 1.12 1.12 1.08 1.05 1.02 1.00 0.99 1.02 1.07 1.10
1.10 1.05 1.04 1.08 1.09 1.07 1.05 1.06 1.05 1.07 1.08 1.09 1.06 1.01 0.89 0.86 0.89 0.97 0.99 1.02 1.09 1.08 1.06 1.07 1.01 1.03 0.92 0.74 0.71 0.75 1.00 1.09 1.10 1.11 1.10 1.07 1.08 1.11 1.09 1.10 0.98 0.99 1.09 1.11
1.12 1.08 1.07 1.08 1.06 1.05 1.06 1.06 1.04 1.04 1.04 1.01 0.95 0.92 0.92 0.97 0.92 1.00 1.04 1.10 1.10 1.08 1.09 1.02 1.06 1.06 0.82 0.69 0.72 0.78 0.92 1.10 1.11 1.11 1.11 1.11 1.13 1.12 1.13 1.11 1.04 1.02 1.08 1.12
1.00 0.93 0.92 0.91 0.88 0.88 0.91 0.95 0.88 0.88 0.88 0.86 0.87 0.87 0.93 0.98 1.01 1.02 1.04 1.09 1.11 1.09 1.05 1.13 1.06 0.84 0.66 0.62 0.62 0.68 0.75 0.94 1.07 1.09 1.08 1.10 1.12 1.12 1.12 1.11 1.10 1.08 1.07 1.07
0.85 0.84 0.82 0.82 0.83 0.80 0.74 0.73 0.75 0.77 0.82 0.84 0.83 0.88 0.89 0.91 0.93 0.98 1.06 1.06 1.05 1.07 0.95 0.84 0.70 0.59 0.59 0.57 0.57 0.61 0.65 0.71 0.78 0.81 0.86 0.88 0.93 1.01 1.03 1.04 1.05 1.05 1.07 1.04

GFSNGP_prec_pwat_342.txt.gz
Precipitable_Water
0.26 0.26 0.27 0.25 0.23 0.22 0.20 0.19 0.20 0.25 0.27 0.30 0.41 0.56 0.68 0.82 0.83 0.71 0.66 0.55 0.63 0.77 0.84 0.93 1.00 1.07 1.17 1.26 1.35 1.42 1.39 1.30 1.18 1.23 1.29 1.37 1.50 1.56 1.62 1.71 1.88 1.98 1.94 1.94
0.22 0.24 0.26 0.25 0.23 0.23 0.23 0.23 0.23 0.24 0.26 0.35 0.41 0.57 0.74 0.82 0.85 0.77 0.71 0.63 0.64 0.75 0.85 0.91 0.99 1.03 1.11 1.16 1.20 1.28 1.26 1.19 1.24 1.34 1.70 1.74 1.76 1.83 1.82 1.84 1.83 1.85 1.87 1.88
0.17 0.22 0.21 0.19 0.21 0.22 0.23 0.24 0.25 0.23 0.28 0.32 0.33 0.43 0.62 0.75 0.83 0.83 0.78 0.72 0.67 0.75 0.86 0.95 1.00 1.05 1.03 1.07 1.19 1.20 1.24 1.50 1.65 1.71 1.64 1.57 1.55 1.54 1.55 1.55 1.59 1.60 1.62 1.65
0.19 0.22 0.17 0.19 0.25 0.25 0.24 0.25 0.27 0.28 0.29 0.32 0.34 0.38 0.55 0.81 0.92 0.90 0.86 0.81 0.75 0.83 0.94 1.00 1.09 1.12 1.22 1.34 1.31 1.34 1.38 1.40 1.45 1.41 1.34 1.30 1.29 1.26 1.28 1.29 1.32 1.37 1.42 1.45
0.23 0.24 0.23 0.21 0.26 0.24 0.24 0.24 0.28 0.28 0.33 0.33 0.33 0.43 0.46 0.66 0.93 0.94 0.96 0.91 0.90 0.95 1.08 1.12 1.19 1.32 1.35 1.33 1.36 1.39 1.33 1.32 1.34 1.35 1.33 1.28 1.17 1.08 1.05 1.02 1.02 1.03 1.14 1.21
0.28 0.21 0.19 0.20 0.27 0.28 0.27 0.21 0.31 0.36 0.35 0.35 0.37 0.36 0.39 0.61 0.80 1.05 1.15 1.00 1.09 1.15 1.22 1.22 1.31 1.43 1.39 1.38 1.39 1.40 1.46 1.49 1.52 1.43 1.31 1.18 1.10 1.01 0.96 0.93 0.87 0.87 0.84 0.85
0.34 0.27 0.24 0.35 0.38 0.36 0.22 0.22 0.34 0.42 0.38 0.35 0.33 0.42 0.62 0.75 0.88 1.14 1.29 1.34 1.37 1.31 1.27 1.38 1.52 1.54 1.45 1.41 1.39 1.51 1.58 1.34 1.18 1.09 1.04 1.07 1.08 1.10 1.03 0.94 0.88 0.83 0.79 0.78
0.38 0.37 0.31 0.49 0.41 0.29 0.39 0.45 0.48 0.48 0.46 0.42 0.44 0.57 0.72 0.86 1.01 1.24 1.38 1.45 1.44 1.43 1.49 1.57 1.56 1.46 1.32 1.39 1.50 1.51 1.29 1.21 1.22 1.15 1.05 0.98 0.98 0.99 0.97 0.92 0.84 0.80 0.75 0.75
0.43 0.42 0.59 0.60 0.59 0.61 0.57 0.49 0.50 0.55 0.57 0.56 0.57 0.70 0.83 0.86 1.06 1.29 1.45 1.47 1.52 1.51 1.59 1.56 1.45 1.40 1.35 1.33 1.33 1.28 1.22 1.22 1.23 1.17 1.12 1.08 1.01 0.97 0.94 0.89 0.79 0.73 0.70 0.70
0.50 0.59 0.58 0.60 0.63 0.63 0.64 0.63 0.67 0.67 0.64 0.69 0.70 0.79 0.89 1.04 1.18 1.34 1.53 1.57 1.66 1.58 1.30 1.27 1.31 1.33 1.31 1.35 1.35 1.31 1.24 1.23 1.23 1.24 1.16 1.10 1.04 0.97 0.86 0.76 0.71 0.73 0.72 0.71
0.55 0.60 0.65 0.68 0.69 0.70 0.69 0.70 0.73 0.79 0.81 0.85 0.92 1.00 1.05 1.13 1.30 1.42 1.42 1.35 1.32 1.27 1.28 1.27 1.32 1.33 1.34 1.36 1.42 1.33 1.29 1.29 1.24 1.18 1.13 1.03 0.96 0.90 0.82 0.82 0.82 0.79 0.84 0.90
0.66 0.69 0.73 0.69 0.78 0.82 0.78 0.80 0.83 0.87 0.93 1.03 1.09 1.15 1.23 1.14 1.11 1.07 1.07 1.14 1.20 1.25 1.26 1.30 1.31 1.34 1.35 1.34 1.36 1.29 1.22 1.19 1.14 1.06 0.98 0.95 0.90 0.87 0.99 0.98 0.98 0.99 0.99 0.93
0.63 0.71 0.74 0.75 0.79 0.87 0.85 0.90 0.91 0.88 0.89 0.92 1.00 0.99 0.99 0.99 1.07 1.09 1.15 1.16 1.17 1.19 1.23 1.28 1.32 1.29 1.29 1.32 1.29 1.24 1.18 1.11 1.05 1.01 0.93 0.89 0.88 0.89 0.87 0.97 1.01 0.96 0.92 0.91
0.73 0.75 0.68 0.74 0.72 0.82 0.86 0.93 0.99 1.01 1.04 1.06 1.08 1.14 1.12 1.06 1.06 1.10 1.10 1.15 1.25 1.23 1.27 1.24 1.21 1.27 1.35 1.32 1.25 1.16 1.11 1.06 1.03 1.00 0.95 0.93 0.93 0.94 0.93 0.87 0.84 0.85 0.88 0.85
0.76 0.78 0.77 0.81 0.85 0.87 0.91 0.93 0.89 0.90 0.96 1.01 1.07 1.08 1.08 1.06 1.06 1.10 1.15 1.17 1.16 1.15 1.17 1.20 1.21 1.19 1.21 1.15 1.09 1.08 1.06 1.03 1.04 0.99 1.00 1.01 0.99 0.99 0.94 0.87 0.81 0.77 0.79 0.82
0.78 0.77 0.77 0.81 0.84 0.88 0.89 0.91 0.96 0.92 0.94 0.96 0.99 1.04 1.09 1.09 1.06 1.05 1.08 1.11 1.07 1.04 1.11 1.11 1.08 1.10 1.15 1.18 1.17 1.12 1.08 1.10 1.06 1.02 1.00 0.97 0.91 0.84 0.79 0.78 0.78 0.78 0.79 0.81
0.73 0.69 0.70 0.73 0.80 0.85 0.90 0.97 1.01 0.95 0.96 0.97 0.95 0.98 0.99 0.97 0.97 0.98 1.02 1.08 1.09 1.06 1.05 1.07 1.12 1.21 1.20 1.12 1.04 1.04 1.05 1.04 1.02 0.99 0.93 0.86 0.84 0.85 0.86 0.86 0.84 0.84 0.86 0.95
0.86 0.81 0.77 0.74 0.75 0.82 0.89 0.92 0.97 0.98 0.95 0.97 1.00 1.00 0.97 0.91 0.88 0.92 0.97 1.01 1.05 1.09 1.14 1.17 1.12 1.11 1.15 1.18 1.18 1.13 1.06 0.98 0.88 0.81 0.79 0.81 0.84 0.87 0.84 0.83 0.85 0.90 1.01 1.08
0.81 0.80 0.79 0.78 0.78 0.80 0.85 0.88 0.92 0.94 0.94 0.97 0.96 0.94 0.93 0.91 0.96 0.99 1.01 1.02 1.02 1.01 1.15 1.17 1.13 1.19 1.14 1.07 0.97 0.87 0.80 0.78 0.77 0.80 0.83 0.84 0.83 0.85 0.89 0.93 0.99 1.07 1.08 1.05
0.81 0.84 0.84 0.82 0.84 0.82 0.81 0.89 0.91 0.93 0.98 0.99 0.97 0.94 0.92 0.95 0.99 1.00 1.03 1.02 1.04 1.06 1.13 1.12 1.07 0.94 0.90 0.91 0.81 0.83 0.82 0.78 0.71 0.74 0.81 0.86 0.90 0.94 1.02 1.07 1.08 1.05 1.02 1.04
0.79 0.81 0.81 0.83 0.84 0.88 0.91 0.94 0.96 0.94 0.95 0.97 0.96 0.97 0.98 1.01 1.03 1.03 1.05 1.00 1.15 1.14 1.06 0.96 0.90 0.92 0.96 0.89 0.92 0.87 0.77 0.72 0.76 0.80 0.91 0.94 0.98 1.06 1.06 1.08 1.04 1.01 0.99 1.03
0.86 0.84 0.86 0.89 0.88 0.89 0.94 0.98 1.00 1.02 1.02 1.02 1.03 1.02 1.05 1.08 1.10 1.13 1.11 1.05 1.08 0.98 0.92 0.92 0.97 0.95 0.94 0.97 0.95 0.82 0.79 0.84 0.90 0.98 1.02 1.05 1.08 1.10 1.06 1.03 1.04 0.99 0.97 1.10
1.01 1.00 0.94 0.95 0.97 0.98 1.04 1.07 1.09 1.08 1.06 1.06 1.07 1.10 1.09 1.10 1.08 0.99 0.95 1.08 1.01 0.92 0.94 0.98 0.98 0.99 1.01 0.98 0.81 0.76 0.81 0.89 1.04 1.07 1.08 1.10 1.08 1.05 1.08 1.11 1.09 1.01 1.06 1.11
1.12 1.16 1.13 1.09 1.08 1.07 1.06 1.10 1.11 1.13 1.15 1.17 1.18 1.17 1.11 1.00 0.98 1.00 1.05 1.05 0.98 0.95 1.01 1.03 1.04 1.05 1.00 0.82 0.71 0.71 0.81 1.01 1.08 1.09 1.09 1.08 1.08 1.11 1.12 1.12 1.08 1.05 1.08 1.11
1.12 1.12 1.14 1.10 1.04 1.04 1.10 1.15 1.16 1.15 1.15 1.16 1.19 1.15 1.08 1.03 0.87 0.95 1.05 0.98 0.98 0.98 1.04 1.05 1.12 1.01 0.91 0.66 0.64 0.66 0.74 0.86 0.91 1.03 1.09 1.09 1.10 1.10 1.11 1.10 1.11 1.09 1.08 1.05
1.01 0.96 0.97 0.98 0.96 0.95 0.89 0.86 0.86 0.96 0.97 0.95 0.99 0.98 0.92 0.93 0.96 1.00 1.00 0.97 0.96 1.03 1.05 1.09 0.95 0.83 0.64 0.59 0.60 0.63 0.67 0.70 0.73 0.75 0.76 0.82 0.88 0.95 1.01 1.03 1.05 1.06 1.02 1.00
0.93 0.91 0.92 0.91 0.93 0.92 0.86 0.77 0.75 0.76 0.81 0.78 0.80 0.84 0.87 0.90 0.88 0.87 0.90 0.94 0.99 1.00 0.91 0.75 0.63 0.60 0.61 0.61 0.61 0.63 0.63 0.62 0.61 0.64 0.66 0.70 0.72 0.73 0.76 0.82 0.84 0.90 0.93 0.94

GFSNGP_prec_pwat_345.txt.gz
Precipitable_Water
0.24 0.27 0.32 0.34 0.33 0.27 0.23 0.24 0.20 0.24 0.31 0.35 0.48 0.57 0.58 0.68 0.83 0.77 0.66 0.62 0.70 0.80 0.86 0.93 1.00 1.10 1.20 1.28 1.37 1.44 1.47 1.52 1.44 1.32 1.36 1.41 1.42 1.55 1.65 1.67 1.70 1.76 1.95 2.09
0.26 0.27 0.27 0.28 0.30 0.31 0.26 0.24 0.22 0.22 0.24 0.35 0.39 0.41 0.66 0.71 0.84 0.77 0.68 0.68 0.71 0.86 0.94 0.97 1.04 1.13 1.23 1.31 1.40 1.49 1.49 1.42 1.41 1.36 1.35 1.63 1.77 1.78 1.81 1.83 1.85 1.81 1.76 1.71
0.21 0.26 0.26 0.26 0.27 0.28 0.27 0.28 0.26 0.22 0.25 0.33 0.36 0.43 0.57 0.80 0.91 0.88 0.77 0.73 0.76 0.81 0.90 0.97 1.08 1.15 1.15 1.24 1.30 1.29 1.29 1.33 1.51 1.69 1.73 1.65 1.60 1.55 1.49 1.47 1.51 1.48 1.49 1.51
0.20 0.24 0.21 0.27 0.29 0.29 0.29 0.27 0.28 0.27 0.30 0.34 0.35 0.37 0.43 0.56 0.90 1.02 0.93 0.81 0.84 0.85 0.87 0.96 1.03 1.09 1.12 1.13 1.19 1.20 1.32 1.47 1.55 1.60 1.53 1.46 1.43 1.42 1.40 1.33 1.22 1.17 1.16 1.22
0.25 0.22 0.24 0.27 0.27 0.25 0.26 0.26 0.28 0.29 0.31 0.34 0.35 0.36 0.36 0.43 0.58 0.90 1.05 1.03 0.91 1.00 1.06 1.01 1.05 1.13 1.19 1.25 1.28 1.41 1.45 1.49 1.52 1.54 1.50 1.47 1.37 1.22 1.15 1.09 1.02 0.97 0.97 0.93
0.32 0.25 0.21 0.25 0.32 0.33 0.31 0.25 0.33 0.31 0.33 0.34 0.37 0.34 0.38 0.47 0.50 0.57 1.02 1.19 1.03 1.06 1.27 1.22 1.19 1.25 1.24 1.28 1.39 1.44 1.48 1.50 1.57 1.59 1.41 1.19 1.12 1.10 1.06 1.00 0.95 0.97 0.94 0.93
0.36 0.32 0.31 0.34 0.38 0.35 0.26 0.24 0.32 0.33 0.35 0.37 0.38 0.41 0.45 0.47 0.60 0.80 0.94 1.25 1.16 1.17 1.33 1.42 1.43 1.44 1.36 1.45 1.43 1.50 1.58 1.63 1.52 1.30 1.25 1.31 1.27 1.20 1.13 1.04 1.00 0.99 0.99 0.97
0.40 0.35 0.30 0.44 0.42 0.32 0.50 0.57 0.56 0.58 0.55 0.54 0.54 0.53 0.60 0.56 0.61 0.80 1.04 1.38 1.27 1.38 1.50 1.59 1.57 1.59 1.54 1.49 1.55 1.53 1.51 1.40 1.29 1.31 1.32 1.36 1.26 1.20 1.24 1.15 1.05 0.99 0.95 0.92
0.42 0.40 0.72 0.70 0.67 0.64 0.60 0.57 0.55 0.56 0.61 0.60 0.56 0.65 0.71 0.66 0.83 1.13 1.32 1.53 1.58 1.64 1.72 1.76 1.77 1.75 1.57 1.51 1.51 1.45 1.37 1.31 1.36 1.39 1.38 1.39 1.33 1.30 1.17 1.11 0.97 0.87 0.79 0.78
0.51 0.74 0.72 0.76 0.74 0.71 0.67 0.60 0.65 0.65 0.63 0.63 0.68 0.79 0.83 0.86 1.02 1.27 1.46 1.56 1.73 1.85 1.92 1.82 1.83 1.69 1.52 1.47 1.44 1.41 1.40 1.36 1.39 1.36 1.38 1.38 1.31 1.24 1.09 0.95 0.89 0.81 0.80 0.80
0.75 0.76 0.82 0.76 0.79 0.76 0.73 0.75 0.76 0.79 0.77 0.82 0.89 0.95 1.05 1.12 1.24 1.36 1.49 1.68 1.94 1.88 1.78 1.58 1.51 1.43 1.49 1.51 1.51 1.39 1.38 1.27 1.31 1.27 1.25 1.23 1.17 1.10 1.03 1.03 1.00 0.93 0.94 0.94
0.78 0.85 0.76 0.77 0.80 0.83 0.80 0.82 0.88 0.88 0.90 1.05 1.15 1.17 1.27 1.33 1.46 1.54 1.58 1.54 1.46 1.45 1.42 1.41 1.44 1.39 1.38 1.34 1.27 1.24 1.24 1.25 1.24 1.19 1.11 1.08 1.05 1.02 1.10 1.05 1.01 1.04 1.05 0.99
0.85 0.88 0.77 0.77 0.84 0.91 0.88 0.93 1.02 1.06 1.18 1.24 1.33 1.25 1.23 1.21 1.26 1.31 1.33 1.33 1.32 1.35 1.41 1.42 1.39 1.40 1.43 1.44 1.32 1.35 1.24 1.24 1.21 1.06 1.01 1.01 1.00 0.94 0.87 0.95 1.04 1.03 1.04 1.04
0.83 0.80 0.72 0.81 0.80 0.88 0.91 0.92 0.98 1.04 1.10 1.14 1.17 1.20 1.20 1.11 1.16 1.16 1.17 1.24 1.29 1.28 1.28 1.30 1.37 1.33 1.39 1.34 1.32 1.23 1.18 1.11 1.05 1.08 1.09 1.06 1.03 0.98 0.95 0.92 0.89 0.92 0.97 0.93
0.81 0.86 0.88 0.91 0.90 0.90 0.91 0.94 0.92 0.96 1.04 1.12 1.21 1.12 1.11 1.09 1.09 1.13 1.23 1.27 1.30 1.31 1.28 1.25 1.24 1.20 1.25 1.23 1.15 1.15 1.14 1.14 1.14 1.09 1.03 0.99 0.99 0.98 0.96 0.93 0.88 0.86 0.88 0.92
0.78 0.78 0.83 0.85 0.87 0.87 0.89 0.92 0.95 0.95 1.01 1.04 1.07 1.10 1.14 1.14 1.13 1.13 1.17 1.19 1.14 1.10 1.13 1.14 1.13 1.15 1.20 1.22 1.20 1.18 1.14 1.10 1.08 1.06 1.05 1.01 0.97 0.89 0.83 0.82 0.84 0.85 0.84 0.85
0.76 0.76 0.78 0.81 0.85 0.89 0.94 0.99 1.13 1.08 1.08 1.05 1.05 1.09 1.09 1.07 1.06 1.04 1.06 1.11 1.11 1.10 1.11 1.12 1.14 1.22 1.23 1.21 1.15 1.10 1.10 1.10 1.06 0.96 0.85 0.78 0.76 0.77 0.83 0.80 0.79 0.81 0.82 0.92
0.89 0.89 0.86 0.86 0.82 0.87 0.92 0.99 1.07 1.09 1.04 1.05 1.07 1.05 1.02 1.01 1.01 1.07 1.10 1.12 1.05 1.05 1.12 1.17 1.13 1.15 1.16 1.11 1.08 1.06 0.96 0.80 0.74 0.73 0.75 0.77 0.78 0.74 0.75 0.76 0.86 0.89 0.95 1.05
0.89 0.89 0.87 0.84 0.85 0.88 0.90 0.92 0.99 1.06 1.07 1.06 1.04 1.03 1.06 1.07 1.06 1.02 1.00 0.98 0.98 1.03 1.16 1.20 1.09 1.13 1.10 1.01 0.86 0.79 0.78 0.80 0.81 0.82 0.78 0.76 0.75 0.76 0.82 0.90 0.96 1.02 1.08 1.07
0.87 0.89 0.91 0.89 0.91 0.93 0.94 0.97 0.96 0.99 1.06 1.09 1.07 1.03 0.98 0.98 1.02 1.02 1.01 1.00 1.04 1.04 1.13 1.12 1.12 1.07 1.02 0.87 0.77 0.86 0.89 0.90 0.87 0.84 0.84 0.83 0.85 0.88 0.95 1.03 1.07 1.07 1.03 1.00
0.85 0.87 0.88 0.90 0.93 0.98 1.00 1.00 0.98 0.95 0.98 1.02 1.02 1.01 1.00 1.01 1.00 1.00 1.03 1.09 1.21 1.20 1.10 1.08 1.04 0.93 0.80 0.79 0.93 0.91 0.84 0.78 0.83 0.86 0.88 0.93 0.99 1.03 1.06 1.09 1.08 1.02 1.05 1.00
0.89 0.89 0.92 0.94 0.94 0.94 0.99 1.02 1.01 1.01 1.03 1.04 1.07 1.06 1.06 1.05 1.09 1.12 1.10 1.14 1.17 1.13 1.12 1.02 0.85 0.77 0.85 0.94 0.90 0.82 0.72 0.76 0.91 1.05 1.06 1.07 1.06 1.07 1.08 1.06 1.05 1.09 1.04 1.08
1.05 1.05 1.01 0.98 0.97 0.98 1.04 1.06 1.07 1.08 1.08 1.11 1.11 1.12 1.07 1.10 1.08 1.04 1.16 1.27 1.19 1.06 1.02 0.89 0.82 0.85 0.96 0.99 0.91 0.72 0.68 0.78 0.90 1.06 1.08 1.07 1.06 1.04 1.05 1.09 1.10 1.08 1.07 1.07
1.17 1.23 1.21 1.20 1.15 1.09 1.04 1.09 1.12 1.14 1.19 1.22 1.21 1.22 1.14 1.07 1.20 1.31 1.16 1.05 1.06 1.03 0.95 0.91 0.92 0.99 1.00 0.95 0.71 0.68 0.73 0.69 0.76 0.84 0.99 1.07 1.09 1.10 1.09 1.09 1.08 1.07 1.05 1.01
1.12 1.13 1.17 1.17 1.15 1.12 1.07 1.08 1.09 1.17 1.21 1.21 1.29 1.27 1.22 1.28 1.14 1.15 1.11 1.01 0.98 0.92 0.88 0.92 1.03 0.99 0.92 0.69 0.64 0.67 0.68 0.68 0.68 0.73 0.74 0.77 0.85 0.96 1.01 1.01 1.02 1.00 0.99 0.97
1.03 1.01 1.04 1.01 1.00 1.02 1.00 1.00 0.91 1.03 1.08 0.98 1.08 1.18 1.11 1.15 1.02 1.03 0.96 0.93 0.90 0.87 0.91 0.98 0.86 0.76 0.64 0.62 0.66 0.65 0.65 0.64 0.66 0.67 0.69 0.72 0.74 0.74 0.74 0.75 0.78 0.80 0.76 0.77
0.99 0.94 1.02 1.02 1.02 0.95 0.93 0.84 0.74 0.77 0.84 0.81 0.89 0.96 1.01 0.94 0.97 0.93 0.88 0.81 0.80 0.85 0.88 0.78 0.74 0.64 0.65 0.63 0.64 0.63 0.65 0.63 0.56 0.57 0.59 0.59 0.60 0.61 0.61 0.62 0.63 0.64 0.64 0.65